Tallevast, FL

1:27 PM EDT on October 01, 2016 (GMT -0400)
Sarasota-bradenton

Weather History for KSRQ - March, 2013

Change the Weather History Date:

Friday, March 22, 2013

  Actual Average Record
Temperature  
Mean Temperature 62 °F 67 °F  
Max Temperature 78 °F 77 °F 89 °F (1923)
Min Temperature 46 °F 58 °F 38 °F (1960)
Degree Days  
Heating Degree Days 3 1  
Month to date heating degree days 108 41  
Since 1 July heating degree days 353 459  
Cooling Degree Days 0 3  
Month to date cooling degree days 14 66  
Year to date cooling degree days 216 170  
Growing Degree Days 12 (Base 50)    
Moisture  
Dew Point 55 °F    
Average Humidity 74    
Maximum Humidity 90    
Minimum Humidity 42    
Precipitation  
Precipitation 0.03 in 0.12 in 2.26 in (1985)
Month to date precipitation 0.90 2.78  
Year to date precipitation 2.04 7.97  
Sea Level Pressure  
Sea Level Pressure 29.94 in    
Wind  
Wind Speed 7 mph (SE)    
Max Wind Speed 17 mph    
Max Gust Speed 23 mph    
Visibility 10 miles    
Events Rain    
T = Trace of Precipitation, MM = Missing Value Source: NWS Daily Summary

Daily Weather History Graph

Daily Weather History Graph

Search for Another Location

Airport or City:

Trip Planner

Search our weather history database for the weather conditions in past years. The results will help you decide how hot, cold, wet, or windy it might be!

Date:

Astronomy

Mar. 22, 2013 Rise Set
Actual Time 7:31 AM EDT 7:42 PM EDT
Civil Twilight 7:08 AM EDT 8:06 PM EDT
Nautical Twilight 6:41 AM EDT 8:33 PM EDT
Astronomical Twilight 6:13 AM EDT 9:00 PM EDT
Moon 3:29 PM EDT (3/22) 4:08 AM EDT (3/22)
Length of Visible Light 12h 57m
Length of Day
12h 11m
Waxing Gibbous, 77% of the Moon is Illuminated
Mar 22
Waxing Gibbous
Mar 27
Full
Apr 3
Last Quarter
Apr 10
New
Apr 18
First Quarter

Hourly Weather History & Observations

Time (EDT) Temp. Dew Point Humidity Pressure Visibility Wind Dir Wind Speed Gust Speed Precip Events Conditions
12:53 AM 46.9 °F 43.0 °F 86% 29.94 in 10.0 mi Calm Calm - N/A   Clear
1:53 AM 48.0 °F 43.0 °F 83% 29.94 in 10.0 mi Calm Calm - N/A   Clear
2:53 AM 48.9 °F 44.1 °F 83% 29.92 in 10.0 mi NE 4.6 mph - N/A   Clear
3:53 AM 48.9 °F 43.0 °F 80% 29.91 in 10.0 mi NE 5.8 mph - N/A   Clear
4:53 AM 46.9 °F 42.1 °F 83% 29.92 in 10.0 mi East 6.9 mph - N/A   Clear
5:53 AM 46.9 °F 41.0 °F 80% 29.94 in 10.0 mi ENE 6.9 mph - N/A   Clear
6:53 AM 46.9 °F 42.1 °F 83% 29.95 in 10.0 mi ENE 4.6 mph - N/A   Partly Cloudy
7:53 AM 48.0 °F 43.0 °F 83% 29.96 in 10.0 mi ENE 8.1 mph - N/A   Partly Cloudy
8:53 AM 52.0 °F 45.0 °F 77% 29.97 in 10.0 mi NE 6.9 mph - N/A   Clear
9:53 AM 61.0 °F 45.0 °F 56% 29.99 in 10.0 mi ENE 8.1 mph - N/A   Scattered Clouds
10:53 AM 66.0 °F 43.0 °F 43% 29.98 in 10.0 mi East 11.5 mph - N/A   Mostly Cloudy
11:53 AM 68.0 °F 45.0 °F 43% 29.99 in 10.0 mi East 8.1 mph - N/A   Overcast
12:53 PM 71.1 °F 48.0 °F 44% 29.98 in 10.0 mi SE 11.5 mph - N/A   Mostly Cloudy
1:53 PM 73.0 °F 55.0 °F 53% 29.96 in 10.0 mi SE 8.1 mph - N/A   Overcast
2:53 PM 77.0 °F 59.0 °F 54% 29.92 in 10.0 mi SSE 9.2 mph - N/A   Mostly Cloudy
3:05 PM 75.2 °F 60.8 °F 61% 29.92 in 10.0 mi SSW 8.1 mph - N/A   Mostly Cloudy
3:50 PM 75.2 °F 60.8 °F 61% 29.90 in 10.0 mi South 8.1 mph - N/A   Overcast
3:53 PM 75.9 °F 61.0 °F 60% 29.90 in 10.0 mi South 9.2 mph - N/A   Overcast
4:53 PM 77.0 °F 64.9 °F 66% 29.89 in 10.0 mi South 13.8 mph - N/A   Partly Cloudy
5:53 PM 75.0 °F 64.9 °F 71% 29.90 in 10.0 mi South 12.7 mph - N/A   Mostly Cloudy
6:53 PM 73.0 °F 66.0 °F 79% 29.90 in 10.0 mi South 10.4 mph - N/A   Overcast
7:53 PM 73.0 °F 66.9 °F 81% 29.91 in 10.0 mi South 10.4 mph - N/A   Mostly Cloudy
8:53 PM 73.0 °F 68.0 °F 84% 29.91 in 10.0 mi South 9.2 mph - N/A   Mostly Cloudy
9:53 PM 72.0 °F 69.1 °F 91% 29.94 in 10.0 mi SSW 4.6 mph - 0.00 in Rain Light Rain
10:01 PM 71.6 °F 69.8 °F 94% 29.96 in 10.0 mi SSW 4.6 mph - 0.00 in Rain Light Rain
10:18 PM 69.8 °F 68.0 °F 94% 29.96 in 8.0 mi SSW 4.6 mph 17.3 mph 0.02 in Rain Light Rain
10:37 PM 69.8 °F 68.0 °F 94% 29.97 in 9.0 mi WSW 8.1 mph - 0.02 in Rain Light Rain
10:53 PM 69.1 °F 66.9 °F 93% 29.98 in 7.0 mi WSW 4.6 mph - 0.03 in Rain Light Rain
11:53 PM 68.0 °F 66.9 °F 96% 29.97 in 9.0 mi Calm Calm - 0.00 in   Overcast